EHI
0 0 0 0 0 0 0 0 0 0 0 0 0 0 0 0 0 0 0 0 0 0 0 0 0 0 0 0 0 0 0 0 0 0 0 0 0 0 0 0 0 0 0
0 0 0 0 0 0 0 0 0 0 0 0 0 0 0 0 0 0 0 0 0 0 0 0 0 0 0 0 0 0 0 0 0 0 0 0 0 0 0 0 0 0 0
0 0 0 0 0 0 0 0 0 0 0 0 0 0 0 0 0 0 0 0 0 0 0 0 0 0 0 0 0 0 0 0 0 0 0 0 0 0 0 0 0 0 0
0 0 0 0 0 0 0 0 0 0 0 0 0 0 0 0 0 0 0 0 0 0 0 0 0 0 0 0 0 0 0 0 0 0 0 0 0 0 0 0 0 0 0
0 0 0 0 0 0 0 0 0 0 0 0 0 0 0 0 0 0 0 0 0 0 0 0 0 0 0 0 0 0 0 0 0 0 0 0 0 0 0 0 0 0 0
0 0 0 0 0 0 0 0 0 0 0 0 0 0 0 0 0 0 0 0 0 0 0 0 0 0 0 0 0 0 0 0 0 0 0 0 0 0 0 0 0 0 0
0 0 0 0 0 0 0 0 0 0 0 0 0 0 0 0 0 0 0 0 0 0 0 0 0 0 0 0 0 0 0 0 0 0 0 0 0 0 0 0 0 0 0
0 0 0 0 0 0 0 0 0 0 0 0 0 0 0 0 0 0 0 0 0 0 0 0 0 0 0 0 0 0 0 0 0 0 0 0 0 0 0 0 0 0 0
0 0 0 0 0 0 0 0 0 0 0 0 0 0 0 0 0 0 0 0 0 0 0 0 0 0 0 0 0 0 0 0 0 0 0 0 0 0 0 0 0 0 0
0 0 0 0 0 0 0 0 0 0 0 0 0 0 0 0 0 0 0 0 0 0 0 0 0 0 0 0 0 0 0 0 0 0 0 0 0 0 0 0 0 0 0
0 0 0 0 0 0 0 0 0 0 0 0 0 0 0 0 0 0 0 0 0 0 0 0 0 0 0 0 0 0 0 0 0 0 0 0 0 0 0 0 0 0 0
0 0 0 0 0 0 0 0 0 0 0 0 0 0 0 0 0 0 0 0 0 0 0 0 0 0 0 0 0 0 0 0 0 0 0 0 0 0 0 0 0 0 0
0 0 0 0 0 0 1 0 0 0 0 0 0 0 0 0 0 0 0 0 0 0 0 0 0 0 0 0 0 0 0 0 0 0 0 0 0 0 0 0 0 0 0
0 0 0 0 0 0 0 0 0 0 0 0 0 0 0 0 0 0 0 0 0 0 0 0 0 0 0 0 0 0 0 0 0 0 0 0 0 0 0 0 0 0 0
0 0 0 0 0 0 0 0 0 0 0 0 0 0 0 0 0 0 0 0 0 0 0 0 0 0 0 0 0 0 0 0 0 0 0 0 0 0 0 0 0 0 0
0 0 0 0 0 0 0 0 0 0 0 0 0 0 0 0 0 0 0 0 0 0 0 0 0 0 0 0 0 0 0 0 0 0 0 0 0 0 0 0 0 0 0
0 0 0 0 0 0 0 0 0 0 0 0 0 0 0 0 0 0 0 0 0 0 0 0 0 0 0 0 0 0 0 0 0 0 0 0 0 0 0 0 0 0 0
0 0 0 0 0 0 0 0 0 0 0 0 0 0 0 0 0 0 0 0 0 0 0 0 0 0 0 0 0 0 0 0 0 0 0 0 0 0 0 0 0 0 0
0 0 0 0 0 0 0 0 0 0 0 0 0 0 0 0 0 0 0 0 0 0 0 0 0 0 0 0 0 0 0 0 0 0 0 0 0 0 0 0 0 0 0
0 0 0 0 0 0 0 0 0 0 0 0 0 0 0 0 0 0 0 0 0 0 0 0 0 0 0 0 0 0 0 0 0 0 0 0 0 0 0 0 0 0 0
0 0 0 0 0 0 0 0 0 0 0 0 0 0 0 0 0 0 0 0 0 0 0 0 0 0 0 0 0 0 0 0 0 0 0 0 0 0 0 0 0 0 0
0 0 0 0 0 0 0 0 0 0 0 0 0 0 0 0 0 0 0 0 0 0 0 0 0 0 0 0 0 0 0 0 0 0 0 0 0 0 0 0 0 0 0
0 0 0 0 0 0 0 0 0 0 0 0 0 0 0 0 0 0 0 0 0 0 0 0 0 0 0 0 0 0 0 0 0 0 0 0 0 0 0 0 0 0 0
0 0 0 0 0 0 0 0 0 0 0 0 0 0 0 0 0 0 0 0 0 0 0 0 0 0 0 0 0 0 0 0 0 0 0 0 0 0 0 0 0 0 0
0 0 0 0 0 0 0 0 0 0 0 0 0 0 0 0 0 0 0 0 0 0 0 0 0 0 0 0 0 0 0 0 0 0 0 0 0 0 0 0 0 0 0
0 0 0 0 0 0 0 0 0 0 0 0 0 0 0 0 0 0 0 0 0 0 0 0 0 0 0 0 0 0 0 0 0 0 0 0 0 0 0 0 0 0 0
Wind_Speed
13 14 15 16 16 17 16 17 17 16 17 17 17 17 16 16 15 14 13 13 13 12 10 10 10 9 6 5 5 4 4 4 5 3 1 1 1 2 2 3 3 4 3
12 13 14 15 15 16 16 17 17 16 17 17 17 16 16 16 15 15 15 14 14 13 12 11 10 7 8 6 5 5 4 4 4 4 2 1 1 2 3 3 3 3 4
10 11 12 14 15 16 17 16 16 16 15 16 16 16 16 16 15 15 15 14 13 13 12 12 11 10 9 7 6 5 4 3 3 3 2 0 1 1 3 3 4 4 4
9 11 12 14 15 15 15 15 15 15 15 15 16 16 15 15 15 14 14 13 13 11 11 11 10 10 10 9 7 6 5 4 3 2 2 1 0 1 2 3 3 3 4
9 10 11 12 12 12 13 14 15 15 15 15 14 15 15 13 13 15 14 13 12 11 10 9 8 9 9 7 6 6 6 4 3 2 2 1 1 1 2 2 3 4 4
8 9 10 10 11 12 12 13 13 14 14 14 14 14 15 11 15 17 15 13 12 11 10 9 8 9 9 9 8 8 7 6 5 3 2 2 2 1 1 2 2 3 3
7 7 8 9 10 11 11 12 13 14 13 13 14 14 14 14 18 19 17 12 11 11 10 9 7 7 9 8 8 8 6 5 4 4 3 3 2 1 1 1 2 3 4
6 6 7 8 9 10 11 12 12 12 12 12 13 13 13 13 19 20 18 13 10 10 10 10 10 10 9 10 8 7 5 4 3 2 2 2 1 1 1 1 2 3 4
5 6 6 7 8 9 11 11 11 11 11 11 11 12 12 13 19 21 19 11 9 9 9 9 10 10 13 14 10 9 7 5 6 6 6 5 6 5 3 2 2 2 3
5 5 6 7 8 9 10 10 9 9 10 10 10 11 12 12 18 21 19 9 10 8 8 8 11 12 16 15 10 9 8 6 6 6 6 6 5 5 3 2 1 1 2
4 4 5 6 7 8 8 8 9 8 9 9 9 9 10 12 17 21 20 10 10 10 8 7 8 15 16 15 10 7 9 9 7 6 4 4 3 2 2 2 1 1 2
3 4 5 5 5 6 7 8 9 9 10 10 9 8 7 9 13 17 19 15 13 11 9 8 9 17 16 14 9 10 14 10 5 5 4 3 2 2 1 1 1 2 2
3 3 3 4 4 6 7 8 8 9 9 8 8 8 7 7 9 16 18 17 15 9 8 13 16 18 16 11 12 14 11 6 5 4 4 3 2 2 1 1 1 1 2
3 3 3 4 4 5 5 6 7 8 9 9 9 9 8 8 8 9 10 11 13 11 11 14 17 16 11 11 11 9 5 4 4 4 4 3 3 2 1 1 1 2 2
3 3 3 4 5 5 4 4 6 6 8 10 10 10 11 10 11 14 12 10 10 11 12 9 8 8 7 6 6 5 5 5 4 4 4 3 3 2 1 1 1 1 2
3 3 3 3 4 5 5 3 3 4 7 9 10 10 9 11 18 19 18 18 20 22 14 10 9 8 8 8 7 6 5 4 4 4 4 3 3 2 1 0 0 1 2
4 3 3 3 4 5 6 6 5 5 7 9 11 13 14 19 21 20 20 21 22 21 10 9 9 8 8 7 7 6 6 5 4 4 4 3 3 2 1 1 0 1 2
4 4 4 4 4 5 5 5 6 7 7 5 7 13 17 20 21 22 22 19 13 10 7 9 9 8 8 8 7 6 6 6 5 4 4 3 3 2 2 1 1 1 2
4 3 3 3 4 4 5 5 5 6 7 7 6 8 14 18 20 20 19 10 10 9 7 7 8 8 8 7 7 7 7 6 5 5 4 4 3 2 2 1 1 1 2
3 4 4 4 4 5 5 6 6 6 7 8 8 8 10 11 10 11 9 7 8 8 8 8 8 8 8 8 7 7 6 6 6 5 4 4 3 2 2 2 1 1 1
3 4 5 5 5 5 6 6 6 7 7 7 7 9 13 10 9 10 8 8 8 8 8 8 8 8 8 7 7 8 8 6 6 5 4 4 3 3 2 1 1 1 1
3 4 4 5 5 5 6 6 6 7 8 9 8 9 15 8 8 8 8 7 7 7 7 8 8 7 8 8 8 8 8 7 6 6 5 4 4 3 2 2 1 0 0
3 4 4 4 4 7 6 6 7 7 8 8 8 8 9 8 7 8 8 8 8 7 7 7 8 7 7 6 6 7 8 7 7 7 6 5 4 4 3 2 2 1 0
4 5 5 5 5 6 6 6 7 7 8 8 8 8 8 8 8 8 8 8 8 8 8 7 7 10 11 9 6 6 5 6 7 7 8 6 5 4 3 3 2 1 1
3 4 5 5 5 6 6 7 7 7 8 8 8 8 8 8 8 8 8 8 9 9 9 8 7 9 12 11 9 7 11 13 10 8 7 6 6 5 4 3 2 2 1
3 4 5 5 6 6 6 7 7 7 7 8 8 8 8 8 8 8 9 9 9 9 9 8 9 11 12 10 11 13 15 14 14 12 7 6 6 5 4 3 3 2 1
Wind_Direction
214 214 209 208 206 203 203 201 197 194 191 191 190 190 190 192 192 193 195 193 196 196 195 199 200 198 194 193 194 201 211 221 245 243 204 176 244 296 312 316 319 317 328
217 217 212 207 205 205 204 202 197 194 192 190 188 188 189 190 192 194 194 194 195 196 194 195 199 193 195 194 191 197 204 208 228 243 217 210 261 302 314 318 322 322 323
219 220 214 206 204 205 205 201 196 193 191 189 187 188 188 189 190 194 194 194 196 196 193 194 195 191 195 192 190 193 195 194 209 227 225 202 274 321 311 314 316 325 325
220 219 214 208 205 204 203 201 195 191 189 188 188 188 187 187 188 189 191 192 192 192 192 192 192 192 194 189 188 189 181 176 179 195 207 208 285 334 312 316 314 325 321
224 220 215 210 204 201 201 198 193 190 188 186 185 186 185 185 187 185 185 187 186 184 185 187 187 185 186 180 174 176 173 168 167 180 187 190 223 312 313 321 314 325 320
229 222 214 206 201 198 197 194 190 188 186 184 185 185 186 186 179 178 178 180 181 180 178 176 171 171 168 161 158 158 162 167 172 172 183 203 227 262 334 324 326 327 310
235 222 209 204 202 194 191 191 188 186 184 184 184 183 186 183 173 173 172 174 176 177 175 169 162 162 163 160 152 143 140 136 151 165 174 192 203 200 215 303 322 318 308
232 220 208 202 200 192 189 189 188 184 182 182 183 183 182 177 169 170 166 172 172 173 173 169 164 162 162 157 149 144 139 132 135 137 142 143 124 112 114 353 330 320 310
234 218 209 205 199 192 190 187 185 181 180 180 181 180 179 173 168 167 163 169 164 164 164 165 162 160 157 153 147 142 133 119 104 102 97 99 98 92 82 73 24 343 322
244 225 212 206 200 195 192 187 181 178 176 172 174 178 176 172 167 165 164 164 160 155 154 157 160 158 156 156 155 150 147 143 135 122 114 110 105 100 81 62 27 336 327
251 232 217 206 200 195 190 183 175 171 167 166 165 170 172 169 165 165 166 165 161 156 155 157 158 156 155 157 154 152 150 145 141 132 125 117 105 92 73 52 18 325 308
249 232 217 206 194 185 180 177 171 166 165 164 159 159 161 160 163 168 167 165 158 155 157 155 151 153 153 153 147 139 139 137 132 134 133 129 120 102 70 42 28 339 310
255 231 214 203 189 178 175 173 170 169 166 164 162 160 156 153 158 162 162 159 153 147 145 146 145 148 147 145 138 140 141 137 139 144 143 133 121 114 98 50 29 6 317
248 226 206 192 182 179 174 174 173 174 170 166 164 161 156 155 156 156 155 151 144 134 131 135 137 138 132 132 138 140 134 137 143 144 136 127 122 124 116 51 356 347 327
240 220 207 194 181 174 173 180 182 186 179 172 170 165 164 168 168 160 155 155 152 145 135 131 136 140 139 137 135 132 132 138 137 135 133 132 134 135 116 58 344 317 317
233 216 206 194 182 166 154 133 123 157 155 163 165 162 158 152 151 153 152 148 145 144 138 144 150 152 153 151 151 147 147 150 148 144 142 142 146 152 149 145 301 313 320
231 223 209 196 187 173 160 155 143 111 119 138 149 151 149 148 150 152 150 147 148 148 143 150 154 156 155 155 155 155 154 151 150 151 148 147 147 153 162 179 244 313 321
224 216 213 204 191 178 167 163 159 156 150 137 140 147 148 150 152 152 149 142 149 155 151 154 156 156 156 155 155 153 149 149 153 154 150 149 154 162 170 186 219 303 315
218 206 203 202 188 172 163 159 154 154 151 144 138 141 147 148 150 154 154 152 155 159 155 153 153 153 154 153 152 152 152 154 156 156 153 154 160 165 172 183 216 276 305
214 196 202 192 178 169 163 160 157 156 155 154 155 153 149 146 150 157 161 155 155 157 156 153 152 152 151 150 151 151 151 152 155 158 156 156 160 165 167 178 199 250 288
201 187 184 182 180 173 167 165 162 159 160 157 156 159 160 159 159 159 162 160 159 157 154 152 151 152 151 149 151 153 153 154 157 159 157 155 156 161 162 167 182 241 300
202 195 190 183 176 174 170 166 162 160 159 156 152 155 159 157 156 157 158 156 152 148 148 148 149 152 156 156 156 156 158 158 159 159 155 151 153 158 158 157 162 191 292
200 189 186 182 174 169 169 166 163 161 160 157 157 156 160 159 157 155 153 149 145 143 143 146 148 149 149 150 154 159 161 162 161 158 153 151 154 158 160 159 166 184 240
198 188 183 179 175 174 170 166 164 161 159 159 159 158 159 157 153 149 147 144 144 143 144 147 150 152 150 147 150 154 151 146 147 152 152 152 153 154 154 157 170 173 204
202 190 184 180 177 174 169 165 163 162 162 159 157 155 155 152 150 148 146 145 145 145 145 146 147 150 153 151 150 151 151 148 145 143 148 149 149 150 154 158 160 161 169
209 196 186 178 177 173 170 168 166 163 161 158 156 156 155 153 151 150 149 148 147 146 146 149 150 150 151 151 153 153 152 151 149 147 145 145 147 148 151 152 151 155 157